Fort Collins, CO

6:35 AM MDT on August 19, 2017 (GMT -0600)
Fort Collins-Loveland Municipal

Weather History for KFNL - March, 2014

Change the Weather History Date:

Saturday, March 8, 2014

  Actual Average Record
Temperature  
Mean Temperature 40 °F -  
Max Temperature 51 °F - 68 °F (2017)
Min Temperature 30 °F - 3 °F (1998)
Degree Days  
Heating Degree Days 24    
Month to date heating degree days  
Cooling Degree Days 0    
Month to date cooling degree days  
Moisture  
Dew Point 29 °F    
Average Humidity 70    
Maximum Humidity 100    
Minimum Humidity 40    
Precipitation  
Precipitation 0.03 in - 0.24 in (2006)
Sea Level Pressure  
Sea Level Pressure 30.26 in    
Wind  
Wind Speed 3 mph (SSW)    
Max Wind Speed 9 mph    
Max Gust Speed -    
Visibility 10 miles    
Events      
T = Trace of Precipitation, MM = Missing Value Source: NWS Daily Summary

Daily Weather History Graph

Daily Weather History Graph

Search for Another Location

Airport or City:

Trip Planner

Search our weather history database for the weather conditions in past years. The results will help you decide how hot, cold, wet, or windy it might be!

Date:

Astronomy

Mar. 08, 2014 Rise Set
Actual Time 6:22 AM MST 5:59 PM MST
Civil Twilight 5:55 AM MST 6:26 PM MST
Nautical Twilight 5:24 AM MST 6:58 PM MST
Astronomical Twilight 4:52 AM MST 7:29 PM MST
Moon 11:04 AM MST (3/8) 1:00 AM MST (3/8)
Length of Visible Light 12h 31m
Length of Day
11h 36m
First Quarter, 52% of the Moon is Illuminated
Mar 8
First Quarter
Mar 16
Full
Mar 23
Last Quarter
Mar 30
New
Apr 7
First Quarter

Hourly Weather History & Observations

Time (MST) Temp. Windchill Dew Point Humidity Pressure Visibility Wind Dir Wind Speed Gust Speed Precip Events Conditions
12:15 AM 32.0 °F 27.5 °F 30.2 °F 93% 30.19 in 10.0 mi NW 4.6 mph - N/A   Clear
12:35 AM 32.0 °F 26.4 °F 30.2 °F 93% 30.20 in 10.0 mi North 5.8 mph - N/A   Clear
12:55 AM 32.0 °F 26.4 °F 30.2 °F 93% 30.20 in 10.0 mi North 5.8 mph - N/A   Clear
1:15 AM 32.0 °F 25.6 °F 30.2 °F 93% 30.21 in 10.0 mi North 6.9 mph - N/A   Clear
1:35 AM 30.2 °F 25.4 °F 30.2 °F 100% 30.21 in 10.0 mi North 4.6 mph - N/A   Clear
1:55 AM 30.2 °F 24.3 °F 28.4 °F 93% 30.21 in 10.0 mi NNE 5.8 mph - N/A   Clear
2:15 AM 30.2 °F 25.4 °F 28.4 °F 93% 30.21 in 10.0 mi NNE 4.6 mph - N/A   Mostly Cloudy
2:35 AM 30.2 °F 26.7 °F 28.4 °F 93% 30.21 in 10.0 mi NNE 3.5 mph - N/A   Overcast
2:55 AM 30.2 °F 26.7 °F 28.4 °F 93% 30.21 in 10.0 mi NNE 3.5 mph - N/A   Overcast
3:15 AM 30.2 °F - 28.4 °F 93% 30.21 in 10.0 mi Calm Calm - N/A   Overcast
3:35 AM 30.2 °F - 28.4 °F 93% 30.22 in 10.0 mi Calm Calm - N/A   Overcast
3:55 AM 32.0 °F - 28.4 °F 87% 30.22 in 10.0 mi Calm Calm - N/A   Overcast
4:15 AM 32.0 °F - 28.4 °F 87% 30.22 in 10.0 mi Calm Calm - N/A   Overcast
4:35 AM 30.2 °F 25.4 °F 28.4 °F 93% 30.22 in 10.0 mi WSW 4.6 mph - N/A   Overcast
4:55 AM 30.2 °F 26.7 °F 28.4 °F 93% 30.23 in 10.0 mi WSW 3.5 mph - N/A   Overcast
5:15 AM 32.0 °F - 28.4 °F 87% 30.24 in 10.0 mi Calm Calm - N/A   Overcast
5:35 AM 32.0 °F - 28.4 °F 87% 30.24 in 10.0 mi Calm Calm - N/A   Mostly Cloudy
5:55 AM 32.0 °F - 28.4 °F 87% 30.24 in 10.0 mi Calm Calm - N/A   Mostly Cloudy
6:15 AM 30.2 °F - 26.6 °F 86% 30.25 in 10.0 mi Calm Calm - N/A   Partly Cloudy
6:35 AM 30.2 °F - 26.6 °F 86% 30.25 in 10.0 mi Calm Calm - N/A   Mostly Cloudy
6:55 AM 30.2 °F - 28.4 °F 93% 30.26 in 10.0 mi Calm Calm - N/A   Mostly Cloudy
7:15 AM 32.0 °F - 28.4 °F 87% 30.27 in 10.0 mi Calm Calm - N/A   Partly Cloudy
7:35 AM 32.0 °F - 28.4 °F 87% 30.28 in 10.0 mi Calm Calm - N/A   Clear
7:55 AM 33.8 °F - 30.2 °F 87% 30.29 in 10.0 mi Calm Calm - N/A   Clear
8:15 AM 33.8 °F - 30.2 °F 87% 30.30 in 10.0 mi Calm Calm - N/A   Clear
8:35 AM 35.6 °F - 32.0 °F 87% 30.31 in 10.0 mi Calm Calm - N/A   Clear
8:55 AM 37.4 °F - 30.2 °F 75% 30.31 in 10.0 mi Calm Calm - N/A   Clear
9:15 AM 37.4 °F - 30.2 °F 75% 30.31 in 10.0 mi Calm Calm - N/A   Clear
9:35 AM 39.2 °F - 30.2 °F 70% 30.32 in 10.0 mi Calm Calm - N/A   Clear
9:55 AM 41.0 °F - 30.2 °F 65% 30.32 in 10.0 mi Calm Calm - N/A   Clear
10:15 AM 41.0 °F - 30.2 °F 65% 30.32 in 10.0 mi Calm Calm - N/A   Clear
10:35 AM 42.8 °F 40.1 °F 32.0 °F 66% 30.33 in 10.0 mi ENE 4.6 mph - N/A   Clear
10:55 AM 42.8 °F 39.3 °F 30.2 °F 61% 30.32 in 10.0 mi West 5.8 mph - N/A   Clear
11:15 AM 44.6 °F 40.7 °F 30.2 °F 57% 30.32 in 10.0 mi WSW 6.9 mph - N/A   Clear
11:35 AM 44.6 °F 43.1 °F 32.0 °F 61% 30.32 in 10.0 mi West 3.5 mph - N/A   Clear
11:55 AM 46.4 °F 45.2 °F 32.0 °F 57% 30.31 in 10.0 mi South 3.5 mph - N/A   Clear
12:15 PM 46.4 °F 44.3 °F 30.2 °F 53% 30.30 in 10.0 mi West 4.6 mph - N/A   Clear
12:35 PM 46.4 °F 42.9 °F 28.4 °F 50% 30.30 in 10.0 mi West 6.9 mph - N/A   Clear
12:55 PM 48.2 °F - 26.6 °F 43% 30.29 in 10.0 mi West 3.5 mph - N/A   Clear
1:15 PM 48.2 °F - 26.6 °F 43% 30.28 in 10.0 mi Calm Calm - N/A   Clear
1:35 PM 50.0 °F - 28.4 °F 43% 30.26 in 10.0 mi Calm Calm - N/A   Clear
1:55 PM 50.0 °F - 28.4 °F 43% 30.25 in 10.0 mi South 9.2 mph - N/A   Clear
2:15 PM 50.0 °F - 28.4 °F 43% 30.24 in 10.0 mi South 3.5 mph - N/A   Clear
2:35 PM 51.8 °F - 28.4 °F 41% 30.25 in 10.0 mi South 5.8 mph - N/A   Clear
2:55 PM 50.0 °F - 28.4 °F 43% 30.26 in 10.0 mi SSW 3.5 mph - N/A   Clear
3:15 PM 51.8 °F - 28.4 °F 41% 30.26 in 10.0 mi South 3.5 mph - N/A   Clear
3:35 PM 51.8 °F - 28.4 °F 41% 30.26 in 10.0 mi South 6.9 mph - N/A   Clear
3:55 PM 51.8 °F - 28.4 °F 41% 30.26 in 10.0 mi South 6.9 mph - N/A   Clear
4:15 PM 50.0 °F - 26.6 °F 40% 30.26 in 10.0 mi Calm Calm - N/A   Partly Cloudy
4:35 PM 50.0 °F - 28.4 °F 43% 30.26 in 10.0 mi Calm Calm - N/A   Partly Cloudy
4:55 PM 50.0 °F - 28.4 °F 43% 30.26 in 10.0 mi SSW 4.6 mph - N/A   Clear
5:15 PM 48.2 °F - 30.2 °F 50% 30.26 in 10.0 mi South 8.1 mph - N/A   Clear
5:35 PM 46.4 °F 42.4 °F 30.2 °F 53% 30.26 in 10.0 mi South 8.1 mph - N/A   Clear
5:55 PM 44.6 °F 40.7 °F 28.4 °F 53% 30.28 in 10.0 mi SSW 6.9 mph - N/A   Clear
6:15 PM 42.8 °F 38.0 °F 28.4 °F 57% 30.29 in 10.0 mi SSW 8.1 mph - N/A   Clear
6:35 PM 39.2 °F 33.6 °F 28.4 °F 65% 30.28 in 10.0 mi SSW 8.1 mph - N/A   Clear
6:55 PM 39.2 °F 33.6 °F 28.4 °F 65% 30.29 in 10.0 mi SSW 8.1 mph - N/A   Clear
7:15 PM 39.2 °F 35.0 °F 26.6 °F 61% 30.28 in 10.0 mi South 5.8 mph - N/A   Clear
7:35 PM 39.2 °F 35.0 °F 26.6 °F 61% 30.28 in 10.0 mi South 5.8 mph - N/A   Clear
7:55 PM 37.4 °F 32.1 °F 26.6 °F 65% 30.28 in 10.0 mi South 6.9 mph - N/A   Clear
8:15 PM 37.4 °F 33.8 °F 26.6 °F 65% 30.28 in 10.0 mi South 4.6 mph - N/A   Clear
8:35 PM 37.4 °F 31.4 °F 26.6 °F 65% 30.27 in 10.0 mi South 8.1 mph - N/A   Clear
8:55 PM 35.6 °F 29.9 °F 26.6 °F 70% 30.27 in 10.0 mi South 6.9 mph - N/A   Clear
9:15 PM 35.6 °F 30.7 °F 26.6 °F 70% 30.26 in 10.0 mi South 5.8 mph - N/A   Clear
9:35 PM 35.6 °F 30.7 °F 26.6 °F 70% 30.26 in 10.0 mi South 5.8 mph - N/A   Clear
9:55 PM 35.6 °F 31.7 °F 28.4 °F 75% 30.25 in 10.0 mi South 4.6 mph - N/A   Clear
10:15 PM 37.4 °F - 28.4 °F 70% 30.25 in 10.0 mi Calm Calm - N/A   Clear
10:35 PM 37.4 °F - 28.4 °F 70% 30.26 in 10.0 mi Calm Calm - N/A   Clear
10:55 PM 35.6 °F - 28.4 °F 75% 30.26 in 10.0 mi Calm Calm - N/A   Clear
11:15 PM 35.6 °F - 26.6 °F 70% 30.25 in 10.0 mi Calm Calm - N/A   Clear
11:35 PM 35.6 °F - 26.6 °F 70% 30.24 in 10.0 mi Calm Calm - N/A   Clear
11:55 PM 35.6 °F - 28.4 °F 75% 30.24 in 10.0 mi Calm Calm - N/A   Clear